Location: Unspecified
(50.1700°N, 6.8600°E)
Time: 10:52:23
(UTC+00:00)

Cosmos 1656 - Pass Details

Date: 24 January 2019
Orbit: 800 x 848 km, 71.1° (Epoch: 19 April)

Event Time Altitude Azimuth Distance (km) Brightness Sun altitude
Rises 06:12:05 0° 193° (SSW) 3,395 6.9 -10.4°
Reaches altitude 10° 06:14:33 10° 190° (S) 2,466 6.2 -10.0°
Maximum altitude 06:20:05 58° 113° (ESE) 984 4.5 -9.2°
Drops below altitude 10° 06:25:40 10° 35° (NE) 2,476 6.3 -8.4°
Sets 06:28:08 0° 32° (NNE) 3,411 7.0 -8.0°
